GFSSGP_850_temp_078.txt.gz
Temp
10 10 12 12 17 18 19 20 22 22 22 23 21 22 23 21 23 23 15 15 16 16 16 16 16 17 17 16 17 16 17 16 16 16 16 16 16 16 16 16 16 18 18 17 17 17 17 17 16
10 10 12 14 16 18 19 21 20 22 22 20 19 19 20 21 18 17 15 15 16 16 16 15 16 17 17 16 17 16 16 16 16 16 16 16 16 16 16 16 17 17 17 17 17 17 17 16 16
9 10 13 14 16 18 19 21 21 21 20 19 19 17 17 18 16 16 16 15 15 16 16 16 16 16 16 16 16 16 16 16 16 16 16 16 15 16 16 17 18 17 17 17 17 17 17 17 16
10 10 12 14 16 18 19 21 20 21 18 18 19 18 15 15 14 15 15 15 15 15 16 16 16 16 16 16 16 16 16 16 16 15 15 16 15 16 17 18 18 17 17 17 17 17 17 17 16
9 11 14 14 15 18 20 20 20 20 20 19 18 19 15 15 15 14 15 15 15 15 15 16 16 16 16 16 15 16 16 16 15 15 15 15 16 17 17 18 17 17 17 17 17 16 16 16 16
11 13 14 14 16 17 19 18 18 19 19 20 19 19 17 17 17 15 14 15 15 15 15 14 15 16 16 15 15 15 16 16 15 15 15 15 15 17 18 17 17 17 17 16 16 16 16 16 16
11 13 13 15 16 17 18 17 18 18 19 19 19 19 19 16 18 16 14 15 15 15 14 14 15 15 15 15 15 15 16 16 15 15 14 14 15 17 17 17 17 17 16 16 16 16 16 16 16
10 12 13 14 15 16 18 17 17 16 18 19 19 19 20 16 17 17 15 14 15 14 15 14 14 14 15 15 15 15 16 16 16 14 14 14 16 17 17 17 17 17 17 16 16 16 16 16 16
9 10 12 14 15 16 17 17 16 16 17 18 18 18 19 17 18 17 13 12 12 13 14 14 14 14 14 15 15 15 15 15 16 16 14 15 15 16 16 16 16 16 16 16 16 16 16 16 16
9 11 12 15 16 16 17 16 16 16 16 17 17 17 16 16 17 16 15 12 12 14 14 14 14 14 14 14 15 14 14 14 14 14 14 12 12 13 13 16 16 16 16 16 16 16 15 15 15
10 10 13 14 14 14 16 16 15 16 16 17 18 17 14 13 13 13 13 12 12 11 11 14 14 13 13 14 14 15 14 13 13 13 14 12 13 16 16 15 15 15 15 15 15 15 15 15 15
8 10 11 12 12 12 14 15 16 15 17 17 17 15 15 12 12 14 13 14 12 12 12 14 14 14 15 15 14 15 15 14 14 15 15 16 16 16 16 16 16 16 15 15 15 14 15 15 15
9 10 10 11 11 11 12 14 15 15 15 16 16 15 15 12 13 12 14 14 14 11 11 13 14 14 15 15 15 15 14 15 14 14 15 15 16 16 16 16 15 15 15 15 15 15 14 14 13
9 9 9 10 10 11 12 13 14 15 15 15 16 15 15 13 12 12 14 15 13 14 13 13 14 14 14 15 15 15 15 15 14 13 15 15 15 15 15 15 15 15 15 15 14 13 12 13 13
6 7 9 10 10 11 12 12 13 14 14 15 15 15 15 13 12 14 14 14 13 13 13 13 12 13 14 14 14 15 15 15 14 14 14 14 14 14 14 13 14 14 14 14 14 13 13 12 12
6 6 6 10 10 11 11 12 15 14 13 15 15 14 14 13 13 12 15 14 14 15 14 13 13 13 13 13 14 14 15 15 15 15 14 14 13 14 14 13 14 14 14 14 14 13 12 12 13
5 6 7 9 11 12 11 11 15 14 13 14 15 14 13 12 12 12 14 14 14 13 11 12 13 13 13 14 14 14 14 14 14 14 15 15 15 14 14 13 14 13 14 14 14 13 12 13 13
7 7 8 9 11 11 12 12 12 12 13 14 14 13 13 11 13 13 14 13 13 13 12 13 12 12 13 13 14 14 14 14 14 14 14 15 14 14 14 14 13 13 13 13 13 13 12 13 13
4 6 7 9 8 12 8 11 9 9 12 13 12 12 12 13 11 11 13 13 12 13 13 13 13 14 14 14 13 14 13 14 14 15 14 14 14 14 14 14 13 13 13 13 13 13 12 12 13
5 6 8 8 10 12 8 9 8 9 11 12 12 11 10 12 12 12 11 11 12 12 12 12 13 12 12 13 13 13 13 13 13 13 13 13 13 14 14 14 14 13 13 13 13 12 13 13 13
5 8 9 7 8 9 10 8 7 9 10 10 9 10 9 10 10 11 11 12 12 11 11 12 11 12 12 13 13 14 13 13 14 12 12 12 12 13 13 13 12 13 12 13 13 13 13 13 13
8 9 6 6 7 9 8 10 6 6 10 10 11 10 9 9 9 10 10 11 12 12 12 12 12 12 12 13 13 13 13 13 13 12 13 12 12 11 12 13 13 12 12 12 12 12 13 12 12
9 8 7 7 10 10 8 9 7 9 9 10 10 9 9 10 10 11 11 13 12 13 13 12 13 13 13 12 12 12 12 12 12 12 12 11 11 12 12 13 13 12 12 12 12 12 12 11 12
8 10 10 10 11 10 8 9 8 7 9 10 9 7 8 9 9 10 11 12 13 14 14 14 14 14 13 14 13 13 13 12 12 12 11 12 12 12 12 12 11 11 11 12 12 11 11 11 11
8 11 9 10 10 10 8 9 6 10 9 10 7 6 7 7 7 10 11 12 12 13 13 14 14 14 14 14 14 14 13 13 13 13 13 12 12 12 12 12 12 11 13 13 11 11 11 10 10
10 10 11 12 11 10 11 8 6 9 8 5 5 5 6 7 6 10 10 10 11 11 12 12 13 12 12 13 13 13 13 13 13 13 13 13 13 13 13 12 12 12 12 12 11 11 11 10 10
10 10 11 11 10 11 9 9 10 10 9 6 5 4 5 6 5 6 9 9 10 11 11 11 11 12 12 12 12 12 13 13 13 13 13 13 14 14 13 13 12 11 11 11 11 10 11 10 11
11 11 12 11 11 10 10 11 10 10 9 8 7 5 4 5 7 7 8 9 9 10 10 11 11 11 11 11 11 11 12 12 12 12 13 13 13 13 13 13 11 11 10 10 10 9 10 11 10
11 12 11 12 11 13 12 10 11 11 10 9 7 6 6 5 5 6 6 8 8 9 10 10 10 11 11 11 11 11 11 11 11 11 12 12 12 12 12 10 11 10 11 10 10 10 10 11 10
9 11 11 13 11 10 13 11 9 10 9 8 7 6 4 4 4 6 8 8 9 9 9 9 9 10 10 10 10 10 10 10 11 11 10 10 11 11 10 10 10 9 9 9 10 10 10 10 10

GFSSGP_850_temp_081.txt.gz
Temp
11 12 13 14 17 19 19 21 23 24 26 26 25 24 25 26 25 22 17 18 18 18 16 16 16 17 17 17 17 17 17 16 17 16 16 16 16 16 16 16 17 18 15 14 14 16 16 16 16
10 12 13 16 17 18 20 22 22 24 24 25 23 22 23 24 20 18 17 16 18 19 17 15 16 16 17 17 17 17 16 16 16 16 16 16 16 16 16 16 17 17 15 14 17 16 16 16 16
10 11 14 17 17 18 20 23 23 24 23 22 22 18 21 22 17 16 16 16 18 18 17 16 16 16 17 17 17 16 16 16 16 16 16 16 16 16 16 16 17 16 14 17 16 16 16 16 16
11 12 13 16 17 19 20 22 24 24 23 22 20 22 18 16 16 16 16 16 17 16 16 16 16 16 16 17 17 16 16 16 16 16 16 16 16 16 16 17 17 17 17 16 16 16 16 16 16
11 14 15 16 16 19 21 22 22 23 23 21 21 21 20 16 15 16 16 16 16 16 16 16 16 16 16 17 16 16 16 16 15 16 15 15 15 16 16 17 17 17 17 16 16 16 16 16 16
12 14 15 16 17 19 20 21 21 22 22 22 21 21 21 17 17 16 17 16 16 16 16 15 16 16 16 16 16 16 16 15 15 15 15 15 15 16 17 17 17 17 17 16 16 16 16 16 16
12 14 15 16 17 19 20 20 21 21 22 21 21 22 21 17 18 18 18 15 15 15 15 15 15 15 15 15 15 15 16 16 15 15 15 15 14 16 17 17 16 16 16 16 16 16 16 16 16
12 14 14 16 16 17 20 20 20 20 20 20 21 20 21 18 19 18 16 17 14 14 15 15 14 14 14 15 15 15 16 16 15 15 15 14 14 16 17 17 16 16 16 16 16 16 16 16 16
11 10 12 14 16 17 19 20 20 20 19 19 19 20 20 19 18 18 17 17 12 13 14 15 15 14 14 14 14 15 15 16 15 14 14 14 15 16 17 16 16 16 16 16 16 16 16 16 16
11 11 12 15 17 17 18 19 19 19 19 19 19 19 19 17 16 16 14 15 13 12 13 13 13 14 14 15 14 14 15 15 15 14 14 14 13 13 13 16 16 16 16 16 16 16 16 15 15
11 11 14 15 15 16 17 18 18 18 18 19 18 19 19 16 14 12 12 14 14 12 13 12 13 13 15 15 14 13 14 13 13 13 14 13 13 13 13 15 15 15 15 15 16 16 15 15 14
10 11 12 13 13 14 15 15 17 18 18 18 18 18 17 16 15 13 11 13 15 12 13 14 13 12 14 15 14 14 14 14 13 13 13 13 13 13 13 13 14 14 15 14 15 15 14 13 13
11 11 11 12 12 13 13 14 15 16 17 17 17 16 17 16 14 13 11 14 15 14 13 12 14 13 13 14 14 14 14 14 13 13 13 13 12 13 13 13 13 14 14 13 13 13 14 13 14
10 11 11 11 11 12 13 14 14 15 16 17 17 16 15 17 15 13 12 13 14 15 14 14 13 12 13 14 14 14 14 14 13 12 13 13 13 14 13 13 13 14 14 14 13 13 14 14 14
9 8 9 10 10 11 12 12 13 14 16 16 16 16 16 16 15 14 13 13 14 14 13 14 14 12 12 13 13 14 14 14 14 13 13 13 13 14 15 14 15 15 13 13 13 14 14 14 14
8 8 6 10 11 11 11 10 14 15 15 16 16 16 15 16 15 14 13 12 13 13 14 14 15 13 12 14 14 13 13 13 14 14 14 14 14 15 15 14 13 13 13 13 13 13 13 13 13
7 6 8 10 12 11 11 11 15 16 15 16 16 16 16 16 14 14 13 12 12 14 13 12 12 12 13 13 13 14 14 14 13 14 14 14 14 14 14 14 13 13 13 12 13 13 13 13 13
8 7 8 10 12 11 11 12 15 13 14 16 15 16 16 15 13 13 11 13 11 13 12 12 13 12 13 13 13 13 14 14 14 14 13 14 14 13 14 14 13 13 12 13 12 13 13 13 14
6 6 6 7 12 12 11 13 14 11 11 13 16 16 16 14 12 13 11 12 12 11 10 11 11 12 13 13 13 13 13 14 13 14 14 13 13 13 13 13 13 13 13 12 12 13 13 13 13
7 6 7 8 10 11 12 12 14 12 10 11 13 15 14 10 11 11 11 10 11 11 11 11 11 11 12 13 12 13 13 13 13 13 13 13 13 13 13 13 13 13 13 13 12 13 13 13 13
6 6 7 6 9 11 11 9 10 12 11 11 11 11 11 11 10 10 10 10 10 11 11 10 10 11 12 11 11 12 12 12 12 12 12 12 12 12 12 12 13 13 12 12 12 12 12 13 13
6 8 7 7 11 10 12 10 8 9 10 10 10 10 9 9 10 10 10 10 10 11 11 11 11 11 13 11 11 11 11 11 12 12 12 12 12 12 12 13 12 12 13 13 14 13 12 12 12
7 9 9 8 8 9 10 12 8 6 9 9 9 8 8 8 9 9 9 9 10 10 11 11 11 11 11 12 13 12 12 13 11 11 11 12 12 12 13 13 11 12 13 14 12 13 12 12 11
8 8 8 8 9 10 9 11 8 6 5 7 7 6 7 7 7 8 7 8 9 10 11 11 11 11 11 11 12 12 12 12 11 11 12 12 13 13 12 14 14 11 12 13 13 13 11 11 11
8 9 10 11 10 10 8 11 7 6 7 6 6 6 6 6 7 7 7 8 9 10 10 11 11 11 12 13 13 13 12 12 12 12 13 12 12 13 13 12 11 11 12 13 14 12 11 11 11
9 11 10 11 11 10 10 8 7 5 6 4 5 5 5 5 6 6 6 7 8 10 9 10 11 11 12 12 13 13 14 13 12 12 12 12 12 12 12 12 12 12 12 13 12 11 11 11 11
11 11 13 13 14 12 9 7 8 7 6 6 5 4 4 5 5 5 6 6 7 8 9 9 10 10 11 12 12 12 13 13 13 13 13 12 12 12 12 13 13 13 13 11 11 11 11 10 10
11 13 12 13 12 11 11 11 10 9 7 6 5 4 4 5 5 6 5 5 6 7 8 9 10 10 11 11 11 12 12 12 12 12 12 12 12 12 12 12 12 11 11 10 11 10 10 10 10
12 13 14 13 12 14 13 11 13 11 10 9 8 6 5 4 5 5 5 6 7 7 8 9 10 10 10 10 10 11 11 11 11 11 11 11 11 12 12 12 11 10 11 10 10 10 9 9 9
11 13 14 14 13 14 15 11 12 12 11 9 8 6 5 5 5 5 5 6 6 7 8 9 9 9 10 10 9 10 10 10 10 10 10 10 10 11 11 11 9 10 10 10 10 9 9 9 9

GFSSGP_850_temp_084.txt.gz
Temp
12 13 14 14 14 15 16 17 20 21 22 25 26 26 23 24 21 18 17 18 19 19 18 17 17 17 17 17 17 17 18 17 17 16 16 16 16 16 16 16 17 17 16 15 14 14 14 16 17
11 12 13 14 13 14 16 19 20 21 23 24 25 23 23 21 19 17 17 18 19 18 18 17 17 17 17 17 17 17 17 17 17 16 16 16 16 16 16 16 17 14 13 15 16 16 16 16 16
11 12 13 13 14 14 16 20 20 22 23 24 21 21 20 18 18 17 17 17 18 17 18 17 16 16 17 16 17 17 16 16 16 16 16 16 16 16 16 16 16 14 13 17 17 16 16 16 17
11 12 12 12 14 16 17 18 20 21 24 24 22 20 18 17 17 18 17 17 17 17 17 18 16 16 16 16 17 16 16 16 16 15 16 16 16 16 16 16 16 14 17 17 16 16 16 16 16
11 13 12 13 14 16 18 19 20 20 22 23 23 20 18 17 18 19 17 16 16 16 16 17 16 16 16 16 17 16 16 16 16 16 16 16 15 15 16 17 16 17 17 16 16 16 16 16 16
11 13 12 12 14 16 17 19 19 20 22 22 22 21 19 19 19 18 18 17 17 17 16 17 16 16 16 16 16 16 16 16 16 16 16 15 15 15 16 17 17 17 17 16 16 16 16 16 16
11 12 12 13 14 16 18 19 19 19 20 21 22 19 20 18 19 20 18 18 18 17 16 15 16 15 15 15 15 15 16 16 15 15 15 15 14 15 15 15 17 16 16 16 16 16 16 16 16
11 11 11 12 14 15 18 19 20 20 19 21 21 19 19 19 19 17 18 18 18 18 15 15 15 15 15 15 15 14 16 16 15 15 15 15 15 16 16 16 16 16 16 16 16 16 16 16 16
11 10 10 12 13 14 17 17 18 19 20 20 21 21 20 19 18 18 15 17 17 18 15 13 11 13 13 15 15 14 15 16 14 15 15 14 14 16 16 16 16 16 16 16 16 16 16 16 16
10 9 10 13 14 14 16 17 18 18 19 20 20 19 19 18 17 17 17 17 15 16 17 14 12 13 11 11 15 14 14 16 14 14 14 14 14 15 16 15 16 16 16 16 16 16 16 16 16
10 9 11 12 13 14 14 15 16 16 16 19 19 19 19 19 16 16 16 18 17 15 15 14 11 11 11 12 13 14 14 15 15 14 14 13 14 14 15 15 16 16 16 16 16 16 16 15 16
9 10 11 11 12 13 13 14 14 15 15 17 19 19 19 17 16 14 15 16 16 16 14 13 14 13 13 12 11 13 14 15 14 14 14 13 13 13 13 14 16 16 16 16 16 15 15 15 14
10 11 11 12 12 12 12 12 13 14 15 15 17 18 17 16 14 15 14 14 13 15 14 14 13 14 14 11 13 13 14 14 13 13 14 13 13 13 13 14 15 16 15 15 15 15 15 14 14
9 10 10 10 10 11 11 12 12 13 14 15 16 17 17 17 16 15 14 15 13 14 14 13 11 12 15 14 13 13 13 13 13 13 13 13 13 13 13 13 14 15 15 15 14 14 14 14 14
9 8 8 9 9 9 10 10 10 13 13 14 15 16 16 16 16 14 15 15 15 13 13 13 11 12 14 15 13 13 14 14 13 13 13 13 13 14 14 13 14 15 15 15 15 14 14 14 14
7 7 6 9 9 10 9 8 11 11 13 14 15 16 16 16 16 15 15 13 14 12 12 12 13 12 12 14 12 13 14 14 14 14 13 12 13 14 14 15 15 15 15 14 14 14 14 14 13
6 5 6 8 11 11 9 8 10 12 13 14 15 16 16 16 16 15 14 15 13 12 13 12 12 12 13 15 12 12 13 13 13 13 13 13 14 14 14 14 13 13 13 13 13 13 13 13 13
5 6 6 6 9 9 10 9 11 13 13 14 15 16 16 16 15 14 14 14 12 11 12 12 11 12 12 13 13 12 14 14 14 14 14 13 14 14 13 13 13 13 13 13 13 13 13 13 13
6 6 6 7 9 7 8 9 10 12 12 11 12 14 16 15 14 13 13 13 13 11 11 11 11 12 11 11 12 13 14 14 13 14 14 13 13 13 13 13 13 13 13 13 13 12 13 13 13
6 6 6 8 8 8 7 9 11 12 10 11 11 13 14 13 12 12 12 11 11 11 10 11 11 12 12 11 12 12 13 13 13 13 13 13 13 13 13 13 13 13 13 13 13 12 12 12 13
5 7 7 6 6 8 9 9 10 11 12 11 11 11 13 12 9 10 11 10 11 10 10 10 10 10 10 11 11 11 12 12 12 12 12 13 13 13 13 13 13 13 13 14 13 12 12 12 12
6 8 8 5 6 7 8 6 10 8 9 11 11 11 10 10 9 10 11 11 9 9 10 10 10 10 10 11 11 11 11 12 12 11 12 12 12 12 13 13 13 13 14 14 13 13 13 12 12
6 9 5 7 8 9 9 8 7 7 8 7 9 8 8 8 9 9 9 10 10 9 10 10 10 10 11 11 11 12 12 11 11 12 12 11 11 12 13 14 14 14 14 14 15 13 13 12 12
8 8 7 7 7 9 9 9 7 6 5 5 6 6 6 6 8 9 9 10 9 9 10 10 10 10 11 12 11 10 11 12 12 12 11 12 10 12 12 12 12 13 12 14 13 13 12 12 11
8 8 9 9 9 9 8 9 6 6 5 6 6 5 5 6 6 7 9 8 7 8 9 9 9 9 10 10 11 11 11 11 11 12 11 11 11 13 11 13 12 15 12 10 11 12 11 10 11
8 7 8 10 10 8 9 7 6 5 5 5 4 4 4 5 6 6 6 7 7 7 8 8 9 9 10 10 11 11 12 12 12 12 12 12 12 12 12 12 13 14 12 13 13 11 10 10 11
10 9 9 9 11 9 8 6 5 5 5 5 4 4 3 4 5 6 6 6 6 7 7 8 9 9 9 10 10 11 11 12 13 13 12 12 13 12 12 12 12 12 13 13 12 10 10 10 11
10 12 10 10 10 10 9 8 8 6 5 5 5 4 3 3 4 4 6 6 6 6 7 8 9 9 10 10 10 10 11 11 11 11 11 11 11 12 11 11 12 12 12 12 11 11 11 11 11
11 11 12 11 10 10 10 8 10 7 7 6 5 4 5 4 5 5 5 6 6 6 7 8 9 9 10 10 10 11 11 11 11 11 11 11 11 11 12 12 12 11 11 10 10 10 10 11 10
10 12 12 8 11 10 9 8 10 9 9 8 6 5 5 5 5 5 5 6 7 7 8 8 9 9 9 10 10 10 10 10 10 10 10 10 10 10 11 11 11 11 9 10 10 10 10 10 9

GFSSGP_850_temp_087.txt.gz
Temp
12 13 14 14 12 11 11 14 16 16 18 22 23 22 20 19 20 19 18 18 18 18 18 18 18 18 18 17 17 17 17 17 16 16 17 17 16 16 16 16 17 17 16 14 15 15 16 17 17
13 13 13 14 10 11 11 14 15 17 20 21 21 22 20 17 17 18 18 16 18 18 18 18 18 18 17 17 17 17 17 17 16 16 16 17 16 16 16 16 17 17 15 14 15 16 16 17 17
12 12 12 10 10 10 12 15 16 18 19 20 21 20 19 16 17 18 18 17 18 17 17 18 17 17 17 17 17 17 17 17 16 16 16 16 16 16 16 16 15 14 15 15 17 17 16 16 16
11 12 12 11 10 12 13 14 17 17 20 20 21 17 18 18 19 18 17 18 18 17 17 17 18 17 17 16 17 17 16 16 16 16 16 16 16 15 16 16 14 13 16 17 17 17 16 16 16
10 11 9 9 10 12 13 15 16 16 17 19 20 18 17 18 19 19 18 19 17 16 17 17 17 17 16 16 16 16 16 16 16 16 16 16 16 15 14 15 13 13 17 17 16 17 16 16 16
11 11 8 9 10 12 13 16 16 16 18 19 19 18 17 19 19 19 18 18 18 17 16 16 16 16 16 16 16 16 16 15 16 15 15 15 15 14 14 15 13 17 16 16 16 16 16 16 16
9 8 8 9 10 12 13 16 15 16 17 18 19 18 17 19 19 19 18 18 18 17 16 15 15 14 14 15 15 15 16 15 16 15 15 15 15 14 15 15 14 15 16 17 17 16 16 16 16
10 9 9 9 10 11 14 15 16 17 16 19 19 17 18 19 19 19 19 18 18 17 16 15 15 14 13 13 13 14 15 15 15 15 15 15 14 14 15 15 14 15 16 16 17 16 16 16 16
10 8 7 9 10 11 14 13 15 15 16 17 18 19 19 19 18 18 18 18 18 17 17 16 14 14 14 14 13 13 14 16 15 15 15 14 14 14 14 14 14 16 16 16 16 16 16 16 16
8 6 8 10 10 11 12 12 12 13 14 15 16 18 19 18 18 18 17 18 17 18 17 17 16 15 14 13 13 12 13 14 15 14 14 15 14 15 14 15 15 15 15 16 16 16 16 16 16
9 7 9 10 10 11 11 12 12 12 12 14 15 15 16 18 17 17 18 17 17 16 16 17 16 16 16 13 11 12 12 12 14 14 14 14 14 15 16 16 16 16 15 16 16 16 16 16 16
7 9 9 10 10 10 11 11 11 11 12 13 13 15 15 17 16 16 15 16 16 15 15 14 14 14 13 13 12 12 12 12 13 13 14 14 14 15 16 16 16 16 16 16 16 16 16 15 15
8 8 9 9 9 9 10 10 10 11 12 12 13 14 14 16 17 16 15 15 15 16 15 13 13 13 13 15 13 13 12 12 12 13 14 13 14 15 15 16 16 16 15 16 16 16 16 15 15
8 7 8 8 9 9 9 9 9 10 11 12 13 13 14 15 16 16 16 15 15 15 14 13 13 12 12 12 14 13 13 12 12 13 13 13 14 15 14 15 16 16 15 16 16 16 15 15 15
7 5 6 7 8 8 9 8 8 10 11 11 12 13 14 15 16 16 16 16 15 15 13 13 13 13 12 11 12 14 13 12 13 14 13 13 13 13 14 14 15 15 15 15 16 15 14 14 14
5 5 3 7 8 8 7 6 9 10 11 11 11 12 13 14 15 16 16 15 16 15 14 13 13 13 12 12 12 15 12 12 13 13 13 13 13 13 13 14 15 15 15 15 14 14 14 14 14
4 1 4 6 8 8 8 7 8 9 10 10 11 12 13 14 15 16 16 15 15 14 14 13 13 13 12 12 12 15 12 12 12 13 13 13 13 13 13 14 14 14 14 14 14 14 14 13 13
1 1 5 5 8 8 8 5 7 10 10 10 11 12 13 14 15 15 15 14 14 13 14 11 12 12 11 11 12 15 13 12 12 13 13 13 13 14 13 13 13 13 13 13 13 13 14 14 13
4 4 4 6 7 8 6 7 7 9 10 8 10 11 13 14 15 14 14 14 13 13 13 13 11 11 11 11 11 11 13 12 12 12 13 13 13 13 13 13 13 13 13 13 13 13 13 13 13
5 5 5 6 7 7 6 6 7 9 9 9 10 12 13 13 13 13 13 13 13 12 12 12 12 11 10 11 11 11 12 12 12 12 12 13 13 13 13 13 13 13 13 13 13 13 13 13 13
5 5 5 6 7 6 6 6 7 9 10 10 11 12 12 13 13 11 12 11 11 10 11 10 12 10 10 11 11 11 12 12 11 12 12 11 12 13 14 14 14 14 14 14 14 13 13 13 13
6 6 6 6 6 5 6 3 8 7 7 7 8 9 12 12 10 9 9 10 10 10 10 11 10 11 10 10 11 11 11 12 12 11 11 12 12 12 12 12 13 14 14 14 14 14 13 13 14
6 7 7 6 6 7 7 7 7 8 7 6 7 8 8 7 8 8 8 9 9 11 10 10 10 10 10 10 10 10 11 11 12 11 11 11 11 12 12 12 12 12 13 13 13 13 14 14 14
8 7 6 7 7 7 7 7 7 6 6 6 7 6 7 7 7 8 8 8 9 9 10 9 9 10 10 10 10 10 10 10 11 11 11 12 12 11 12 12 13 13 12 13 13 12 12 12 12
7 6 8 8 7 9 7 8 6 6 6 6 6 5 5 6 6 7 8 8 9 8 8 8 9 9 10 9 9 10 10 11 12 12 11 12 12 13 12 12 13 12 11 11 11 11 11 11 11
7 7 7 9 8 8 9 7 6 5 5 5 4 4 5 5 5 5 6 6 6 7 8 8 8 9 9 9 10 10 11 11 11 11 11 11 12 13 12 11 11 11 11 11 12 10 11 11 10
8 8 7 8 9 8 7 6 4 4 5 5 4 4 3 4 4 4 4 5 6 7 7 7 8 8 8 9 9 9 9 10 10 11 11 11 11 11 11 11 11 12 11 11 10 10 12 11 10
9 10 8 8 9 9 8 8 7 5 4 4 4 3 3 3 3 4 4 5 6 6 7 7 8 8 8 9 9 9 10 9 9 9 10 10 11 12 11 11 11 11 10 10 10 10 12 10 10
9 9 10 10 9 9 8 8 7 6 5 4 4 3 3 3 3 4 5 5 6 7 7 8 8 8 9 9 10 10 10 10 11 11 11 11 11 11 11 12 12 12 12 12 11 9 10 10 10
9 9 9 7 9 7 6 7 8 6 5 5 4 4 4 4 5 5 6 6 7 7 8 8 8 9 9 9 9 9 10 10 10 10 10 10 10 11 11 11 11 11 11 11 10 9 9 10 10

GFSSGP_850_temp_090.txt.gz
Temp
13 13 13 14 11 9 11 12 14 14 17 19 20 19 18 18 18 18 17 17 19 18 18 18 18 18 18 18 17 17 17 17 17 17 17 17 17 17 16 17 17 16 16 15 15 16 17 17 16
12 12 13 13 9 10 10 12 14 14 17 18 20 20 18 17 17 16 17 18 18 18 18 18 18 17 17 17 17 17 17 16 16 16 16 17 16 16 16 17 17 16 15 15 15 16 17 17 16
12 12 13 9 8 9 10 13 13 16 17 18 19 19 18 18 18 17 18 18 17 17 18 18 18 17 17 17 17 17 17 17 16 16 16 16 16 16 16 16 17 16 14 14 15 16 16 16 16
11 12 12 10 9 11 11 12 14 14 17 18 18 16 18 18 19 19 19 18 17 17 17 17 17 17 17 17 17 16 17 17 17 16 16 16 16 15 16 16 15 14 14 14 16 16 16 16 16
11 11 8 8 9 10 11 13 14 13 15 16 17 17 18 18 17 18 19 19 18 17 17 16 16 16 16 16 16 16 16 16 16 16 16 16 16 15 15 15 14 13 14 16 14 16 16 16 15
10 10 7 7 9 10 11 14 14 14 15 16 17 18 18 18 17 16 18 18 18 18 17 15 15 15 16 15 15 16 16 15 15 16 16 15 16 15 15 14 13 15 16 16 16 16 16 16 15
8 7 7 9 9 10 12 14 14 14 14 15 17 16 19 19 17 17 18 18 17 17 17 15 15 14 15 15 14 14 15 15 15 16 15 15 15 15 14 13 13 15 16 16 16 16 16 16 16
10 8 8 8 9 9 12 12 13 14 13 15 16 15 16 19 18 17 18 18 18 17 17 17 15 15 14 14 14 14 14 14 15 15 15 15 15 14 14 13 13 13 13 14 16 16 16 16 15
9 7 6 8 9 10 12 10 12 12 13 13 14 15 15 17 18 17 17 17 18 17 17 16 16 15 15 13 14 14 13 14 14 14 15 15 14 14 14 14 13 13 13 15 16 16 16 16 16
8 5 7 9 9 9 10 10 10 11 11 12 13 14 14 14 16 16 17 17 17 17 17 17 16 16 14 14 14 14 13 13 14 13 14 14 15 14 14 14 14 14 16 16 15 16 16 16 15
8 6 8 9 10 10 10 9 10 10 10 11 11 12 13 13 15 16 16 17 18 17 16 16 16 15 15 15 14 14 14 13 13 13 13 14 14 14 14 14 13 15 16 16 15 15 16 16 16
7 8 9 9 10 9 9 9 10 10 10 11 11 12 12 13 15 15 16 16 16 16 16 16 16 15 15 15 15 15 16 15 15 15 13 13 13 14 14 14 15 16 16 16 16 16 16 16 16
7 7 8 8 8 8 9 8 8 9 10 10 11 12 12 13 14 15 15 16 16 15 15 15 15 15 14 15 16 15 15 16 15 15 14 12 13 14 13 14 16 16 16 16 16 16 16 16 15
6 6 6 7 7 7 7 8 8 9 10 11 11 11 12 12 13 13 14 15 16 16 16 15 15 14 14 15 15 13 10 14 14 15 16 13 12 13 14 13 15 16 16 16 16 16 15 15 15
6 5 5 6 7 7 8 7 7 9 9 9 9 10 11 12 13 14 14 14 15 16 15 15 14 14 14 14 13 12 11 12 13 15 15 15 13 13 13 15 15 15 15 15 15 15 15 15 14
5 4 3 6 7 7 7 6 8 9 9 9 9 10 10 12 13 14 14 15 15 15 16 16 15 14 14 14 13 12 12 11 14 14 15 14 13 13 12 14 14 15 15 15 15 15 14 14 14
3 0 3 5 8 7 6 5 7 8 8 8 8 10 10 11 12 14 14 15 15 15 15 15 15 15 14 12 12 11 12 12 15 12 12 14 13 13 13 12 14 15 15 15 15 15 14 14 14
1 3 3 4 7 7 6 6 8 8 7 8 9 9 9 11 12 14 14 15 15 15 14 14 14 14 13 12 12 12 12 12 14 13 12 13 13 13 13 12 13 14 14 14 14 14 14 14 14
2 2 3 5 6 6 6 6 7 7 7 8 9 10 10 12 13 13 13 14 14 14 13 13 13 13 13 12 12 11 12 12 13 14 12 12 13 13 13 13 13 13 14 14 14 14 14 14 13
3 4 5 6 7 7 7 6 7 7 7 9 9 9 11 11 13 13 13 13 13 12 12 12 12 11 11 13 12 11 12 12 11 13 12 11 12 13 13 12 13 13 13 13 13 13 13 13 13
4 5 6 5 6 6 6 7 6 8 8 8 9 9 11 13 13 13 13 12 11 11 10 11 11 10 10 12 12 11 11 11 12 12 11 11 11 12 13 13 13 13 13 13 13 13 13 13 13
5 7 6 6 6 6 6 3 6 6 7 6 7 8 8 9 10 11 11 10 9 10 9 10 10 10 10 11 12 10 10 11 11 12 11 11 11 11 12 13 13 12 13 13 14 14 14 14 14
6 6 6 7 6 6 6 7 7 6 7 6 7 7 7 8 8 8 9 12 9 9 9 10 10 10 11 11 10 10 10 11 11 11 11 10 11 11 11 11 11 11 11 12 12 12 13 13 13
7 7 7 6 6 6 4 6 6 6 6 7 7 6 6 7 7 7 8 8 8 9 9 9 9 10 10 10 10 10 10 10 10 11 11 10 10 11 11 11 11 10 11 11 12 12 12 12 12
7 6 7 7 6 8 8 7 6 5 6 6 6 5 5 5 5 5 6 7 8 8 8 8 9 10 9 9 9 9 10 10 10 9 10 10 10 10 10 10 10 11 10 11 11 11 12 11 12
7 6 7 9 8 6 7 7 6 5 5 5 4 4 4 4 4 4 5 6 7 7 8 8 9 9 9 9 10 10 10 10 10 9 10 9 9 10 10 10 10 10 10 11 11 11 11 10 11
7 7 7 8 8 7 7 6 5 4 5 5 4 3 4 3 4 3 4 4 5 6 6 7 7 7 8 8 8 9 10 10 10 10 10 9 10 10 10 11 11 11 11 11 11 11 11 10 10
8 9 7 7 8 9 8 8 7 5 4 3 4 3 2 2 2 3 3 4 4 5 6 7 7 8 8 8 8 8 9 9 10 10 10 11 11 11 11 10 10 10 11 11 11 11 11 10 10
9 8 9 9 8 8 8 7 6 4 3 3 3 3 2 2 2 3 4 5 5 6 7 7 8 8 8 8 8 8 8 8 9 9 9 9 10 10 10 10 10 10 10 10 9 10 10 9 9
9 8 8 8 9 5 6 6 6 5 4 4 3 3 3 3 3 4 4 5 5 6 7 8 8 8 8 8 8 9 8 8 9 9 9 9 9 9 9 9 9 9 9 10 10 8 9 9 9

GFSSGP_850_temp_093.txt.gz
Temp
13 13 13 14 11 9 10 11 13 14 16 16 18 18 17 19 19 17 18 18 18 18 18 17 17 17 17 17 17 17 17 17 17 17 17 16 17 16 16 16 17 16 16 15 16 17 16 16 16
12 12 13 13 9 9 9 11 13 13 15 17 18 19 17 17 17 19 18 18 18 18 18 18 18 17 17 17 16 17 17 17 17 17 17 17 17 17 16 16 17 16 16 15 16 16 16 16 16
12 13 13 9 7 8 10 12 12 14 16 16 17 18 17 17 17 18 18 18 18 18 18 18 18 17 17 17 17 17 16 16 16 16 17 16 16 16 16 16 16 15 15 15 16 16 16 16 16
12 13 11 8 9 9 10 12 12 12 15 16 16 15 18 18 17 17 17 18 18 17 17 17 17 17 17 17 17 17 16 16 16 16 16 16 16 15 16 16 16 15 14 15 16 16 16 16 16
12 11 7 8 8 9 10 12 13 12 13 15 16 16 17 18 18 17 18 17 17 18 17 17 17 17 16 16 16 16 16 16 16 16 16 16 16 15 14 16 16 16 13 14 16 16 16 16 16
10 10 8 7 8 10 10 12 13 13 13 14 15 15 17 17 18 18 18 17 17 16 16 16 15 16 16 16 15 16 16 16 16 16 16 16 15 15 15 15 15 13 13 14 16 16 16 16 15
8 6 7 8 8 10 11 12 13 12 12 14 15 14 16 15 15 17 18 17 17 16 16 15 15 15 15 15 15 15 15 15 15 15 15 15 15 15 15 15 14 13 13 14 15 16 16 16 16
9 7 7 7 8 9 11 11 12 12 12 12 14 12 12 13 16 15 17 17 17 16 16 15 16 15 14 15 15 15 15 14 15 15 15 15 15 15 14 14 13 13 15 14 14 16 16 16 16
9 6 5 8 8 9 10 9 10 11 11 11 13 13 13 13 13 13 15 17 17 17 17 16 16 16 16 14 15 15 15 15 14 15 15 14 14 14 14 14 14 16 14 15 15 16 15 15 15
7 4 6 8 9 8 9 9 9 10 10 10 11 12 13 14 13 13 13 16 14 17 17 17 17 16 16 16 14 15 15 15 15 14 14 14 14 14 14 13 13 15 13 14 14 15 15 15 15
7 5 7 8 9 9 8 8 9 9 8 11 10 11 12 13 14 13 14 14 15 15 16 16 16 16 16 16 15 15 14 14 14 14 14 13 13 14 14 14 14 13 13 13 14 15 16 15 15
7 7 8 8 8 8 8 8 8 9 9 10 10 10 11 13 13 14 14 15 15 16 15 15 15 15 15 15 15 15 15 15 15 16 16 15 14 13 13 14 14 13 12 13 15 15 16 15 15
6 6 6 7 7 7 8 7 7 8 9 10 10 10 10 11 12 14 14 14 14 15 16 16 15 15 15 14 15 15 16 16 16 15 16 16 15 13 13 14 14 13 12 14 15 15 15 15 15
6 5 6 6 7 6 6 7 7 8 9 10 10 9 9 10 11 12 14 14 14 15 15 15 16 16 16 15 15 15 16 16 15 15 16 17 16 15 13 13 13 13 15 14 15 15 16 15 15
6 4 4 6 6 6 7 6 5 8 9 8 9 9 9 9 10 12 13 14 14 14 15 15 15 15 15 14 14 14 15 15 15 15 14 14 17 16 15 13 13 12 14 13 15 14 15 15 15
4 4 2 5 6 7 6 5 7 8 8 8 8 9 9 9 9 11 13 13 14 14 15 15 15 15 15 15 14 14 14 14 13 13 12 12 16 16 14 14 13 12 12 12 13 15 15 15 15
2 1 2 4 6 6 5 5 6 8 8 7 7 7 9 8 9 11 12 13 14 14 15 15 15 15 15 14 14 14 14 13 12 12 12 12 15 15 15 14 12 10 11 12 13 14 14 15 15
-0 0 3 3 6 6 5 5 7 7 7 7 7 7 9 9 10 11 12 13 14 15 14 14 14 14 14 13 13 12 14 14 13 12 12 12 12 14 13 13 12 11 12 13 12 14 15 14 14
2 1 2 4 5 5 5 5 6 7 6 6 6 8 9 9 11 11 12 13 14 14 13 13 13 14 13 12 12 13 13 13 12 12 11 12 12 12 12 13 12 12 13 13 13 13 13 14 14
3 3 3 5 6 6 6 5 6 7 6 7 8 8 8 9 10 11 13 13 13 13 13 13 12 13 12 11 12 11 12 12 12 12 11 12 11 11 11 13 12 13 12 13 13 13 13 13 13
3 4 5 4 5 6 5 6 5 7 7 7 7 6 7 9 8 11 12 12 13 12 12 12 12 12 11 11 11 11 11 10 12 12 11 11 11 11 11 12 13 13 13 13 13 13 13 13 13
5 7 7 6 6 5 6 2 5 5 6 5 6 6 7 7 7 8 9 9 10 11 10 10 10 10 10 11 10 10 10 11 12 12 11 11 10 11 11 11 12 12 12 13 13 13 13 13 13
6 7 6 7 7 6 6 4 5 5 5 5 6 6 6 7 7 7 8 8 8 9 9 9 9 9 10 11 10 10 10 10 11 11 11 11 10 10 10 11 11 12 12 12 13 14 14 13 13
7 7 7 6 6 6 4 4 3 6 6 6 7 5 5 5 6 7 7 7 8 8 9 9 9 9 9 9 10 10 11 10 10 11 11 11 10 10 10 10 11 12 12 13 12 12 12 12 12
6 6 5 6 7 6 6 6 5 6 6 6 6 5 4 4 5 5 6 6 7 7 8 8 8 9 9 9 10 9 10 10 10 10 10 10 10 10 10 10 10 11 11 11 10 11 11 11 12
7 6 7 8 7 6 7 7 6 5 5 5 4 4 3 4 3 3 5 5 5 6 7 7 8 8 8 9 9 9 10 9 9 9 9 10 9 10 10 10 10 9 9 11 10 10 9 10 10
7 7 7 8 8 6 6 6 5 5 5 4 4 3 2 3 3 3 3 6 6 6 7 7 8 8 9 8 8 8 8 9 9 9 9 9 9 9 9 9 10 10 10 10 10 10 10 10 10
7 7 7 7 9 8 8 7 7 5 4 3 3 2 2 3 3 3 3 4 4 4 5 5 6 7 7 7 8 8 8 8 8 8 9 9 9 9 9 9 9 9 10 10 10 10 10 10 10
7 7 7 8 7 8 8 7 7 4 3 2 3 2 2 2 2 2 3 3 4 4 5 5 6 7 7 8 8 8 8 8 8 9 9 9 9 8 9 9 10 10 9 9 10 10 10 10 10
9 8 7 6 8 5 7 7 6 5 4 4 3 2 2 3 3 3 4 4 4 5 6 6 6 6 6 6 6 7 8 8 8 8 8 8 9 9 9 9 8 8 9 9 9 10 10 9 8

GFSSGP_850_temp_096.txt.gz
Temp
14 13 13 14 10 8 9 11 12 14 15 15 16 16 17 18 19 16 18 18 18 18 17 17 17 17 17 17 17 17 17 17 17 17 17 17 17 17 16 16 17 16 16 15 15 16 17 15 16
13 13 13 13 8 10 10 10 12 13 14 16 17 17 16 16 18 18 18 17 18 17 17 17 17 17 17 17 17 16 16 16 16 16 16 17 17 17 16 16 16 16 15 16 16 17 17 17 16
12 13 13 8 7 9 11 11 12 13 15 15 16 17 16 16 17 17 17 18 18 18 18 17 17 17 17 17 17 17 16 16 16 16 16 16 16 16 16 16 16 16 15 16 16 17 17 17 16
12 13 11 8 8 8 10 12 11 12 15 15 14 15 17 16 15 16 16 17 17 18 17 17 17 17 17 17 17 17 17 16 16 16 16 16 16 15 16 16 16 15 15 15 16 16 17 16 16
12 12 6 7 8 8 9 11 12 12 13 14 14 14 15 15 16 16 16 16 17 17 17 17 16 17 17 16 16 16 16 16 16 16 16 16 16 15 14 15 16 15 15 15 16 16 16 16 16
10 9 7 7 7 9 9 12 12 12 12 14 14 13 15 15 17 17 16 17 16 17 16 16 15 16 16 16 16 16 16 16 16 16 15 16 16 15 15 15 15 14 14 14 15 16 16 16 16
7 6 7 7 8 9 10 12 12 11 11 13 13 12 15 16 16 16 16 16 16 16 16 16 16 15 15 15 15 15 15 16 16 16 16 15 15 15 15 15 15 15 13 13 15 16 16 16 16
10 6 6 7 7 9 9 11 11 11 11 12 13 12 12 14 14 14 15 15 16 16 16 16 16 16 15 15 15 15 15 15 16 15 15 15 15 15 15 15 14 13 13 13 14 15 16 16 16
9 5 5 7 7 9 9 8 10 10 10 11 12 12 13 13 14 14 14 15 15 16 16 16 16 16 16 15 15 15 15 15 16 15 15 15 14 14 14 14 14 14 14 13 13 15 15 16 16
7 4 6 7 8 8 8 8 9 9 9 9 10 12 12 13 14 14 14 14 15 15 16 16 16 16 16 16 16 15 15 15 15 15 15 16 15 14 14 14 14 14 15 13 13 13 15 15 15
6 5 6 8 8 7 8 7 9 8 7 10 10 10 10 12 13 14 14 13 14 13 14 15 15 16 16 16 16 15 15 15 15 15 15 15 15 14 13 14 13 13 13 12 13 13 15 15 15
6 7 7 7 7 7 6 7 7 8 8 9 10 10 9 10 12 12 13 13 13 13 14 15 15 16 15 15 15 15 15 15 15 15 16 16 16 16 14 13 13 13 13 14 14 14 15 15 15
6 5 6 6 6 7 7 6 6 7 8 9 9 9 9 9 10 11 12 13 13 14 14 14 15 15 15 15 15 15 15 15 15 15 15 16 16 16 16 15 13 13 13 13 13 13 14 15 15
5 5 5 6 7 6 6 6 6 8 9 9 9 9 9 9 9 11 12 13 13 13 14 14 14 14 14 15 15 15 15 15 14 15 15 15 15 14 16 16 15 14 13 13 13 12 13 14 14
5 4 4 5 6 5 6 5 4 8 8 8 8 9 9 9 9 9 11 13 13 13 13 13 13 14 14 15 15 15 15 15 15 15 15 15 15 14 13 15 15 15 13 13 13 12 13 13 14
3 3 2 5 5 6 6 4 6 8 8 8 8 8 8 8 8 9 11 12 13 13 14 14 14 14 14 14 14 14 14 14 15 15 14 15 15 14 14 12 13 15 13 13 12 13 12 13 14
1 -1 2 3 6 5 5 4 5 7 7 7 7 8 8 8 9 9 9 12 13 14 14 14 14 15 14 14 14 13 13 13 13 13 13 14 14 14 13 12 12 12 14 13 12 11 12 13 13
1 -1 2 3 5 5 4 4 6 7 6 6 6 7 7 8 10 10 10 10 13 13 14 14 14 14 13 13 12 12 12 13 12 13 12 12 13 13 12 12 12 11 12 12 12 11 12 12 13
0 1 2 3 5 5 4 4 5 6 6 5 6 6 7 8 10 9 10 11 12 13 14 14 14 14 13 13 13 12 13 13 12 12 12 12 12 12 12 11 11 11 12 13 14 11 11 12 12
2 2 4 4 5 6 5 5 6 6 5 6 6 6 6 7 8 8 10 10 12 13 13 14 13 13 12 12 12 11 11 12 12 12 12 12 12 12 12 11 11 12 11 11 11 11 11 12 12
4 3 4 5 6 6 5 5 5 6 6 6 6 6 7 7 7 7 7 9 12 13 13 13 12 12 12 11 11 11 11 11 11 12 12 12 12 13 11 12 11 12 11 12 11 11 12 12 13
4 6 6 6 6 6 6 4 5 5 6 5 5 5 6 7 7 7 6 8 8 11 11 11 11 11 12 11 10 10 10 10 10 12 12 11 11 12 12 11 11 11 11 11 12 11 13 12 13
6 7 7 6 6 6 5 5 4 5 5 6 6 5 5 6 6 6 6 6 7 8 8 8 9 9 9 10 10 10 10 9 10 12 10 10 11 11 12 11 10 10 10 11 11 10 12 12 12
7 6 6 6 6 6 5 5 2 6 6 6 6 4 4 4 5 5 6 6 6 7 8 8 8 9 9 9 9 9 9 10 10 10 10 10 11 11 11 10 10 10 10 10 10 10 11 13 13
6 6 6 4 4 5 6 5 4 6 5 6 5 4 3 3 4 4 5 5 5 6 7 7 8 8 9 8 9 9 9 10 10 10 9 10 10 10 10 9 10 9 9 10 10 10 10 11 11
7 6 6 5 7 7 7 7 5 5 5 4 4 3 3 3 3 3 3 4 5 4 4 5 6 6 8 8 8 8 8 9 9 9 9 10 9 10 10 10 10 10 9 9 9 10 10 10 10
7 7 7 7 7 7 6 7 5 5 4 4 3 2 3 3 3 2 2 3 3 3 3 4 6 6 6 6 8 8 8 8 9 8 8 9 9 9 9 9 9 9 10 10 10 11 11 10 10
7 7 8 7 8 9 7 7 7 5 4 2 2 1 2 2 2 2 2 3 3 4 4 5 5 6 6 7 8 8 9 8 8 8 9 8 8 9 9 9 9 9 9 9 9 9 9 9 9
6 7 7 7 7 8 7 7 6 5 3 3 2 2 2 2 2 2 3 3 3 4 5 6 6 6 7 6 7 7 7 7 7 8 8 8 8 8 8 8 8 8 8 8 8 9 9 9 9
8 8 6 5 7 5 6 7 5 5 4 3 2 2 2 2 3 3 3 3 4 4 4 5 5 6 6 5 6 6 6 6 7 7 6 7 7 7 8 8 8 8 8 8 8 8 8 8 9

GFSSGP_850_temp_099.txt.gz
Temp
14 13 14 15 14 13 13 14 13 14 15 15 15 15 17 16 19 19 17 16 17 17 16 16 17 17 17 17 17 17 17 17 17 17 17 16 16 16 16 16 17 16 16 15 14 16 14 17 16
13 13 14 14 13 15 16 12 13 14 14 15 16 16 16 18 16 16 16 16 16 16 16 16 17 17 17 17 17 17 17 17 17 17 17 16 15 16 16 16 17 16 15 15 16 17 16 17 16
13 13 14 11 11 15 15 12 12 13 14 15 15 16 16 14 15 15 15 16 16 17 17 16 16 16 17 17 17 17 16 16 17 16 16 16 15 16 16 16 16 16 15 16 16 17 17 17 16
12 14 11 12 12 11 12 12 11 13 14 15 14 16 15 14 15 16 15 16 16 17 16 17 16 16 17 17 17 17 16 16 16 16 16 16 15 16 16 16 15 16 16 15 16 17 17 16 16
12 12 9 9 10 10 10 10 11 13 13 14 14 15 15 14 15 16 16 16 16 16 16 16 16 16 16 16 16 16 16 16 16 16 16 16 15 15 16 16 15 15 15 15 16 17 17 16 16
11 10 10 11 9 9 10 10 11 12 12 13 13 13 15 15 16 16 16 16 16 16 15 16 16 15 16 16 16 16 16 16 16 16 16 16 16 15 15 15 15 15 15 15 15 16 17 16 16
8 8 9 8 9 10 11 10 11 11 11 12 12 13 15 15 15 15 14 16 16 16 15 15 16 16 16 16 15 15 16 16 16 16 16 16 15 15 15 15 15 15 15 15 15 16 16 16 16
10 8 7 7 8 10 9 10 10 10 11 12 12 13 13 14 14 14 14 15 16 16 16 15 15 15 16 16 15 15 15 16 16 16 16 16 15 15 15 15 14 15 15 14 14 15 16 15 16
9 7 8 8 8 9 8 9 9 10 10 10 11 12 13 12 13 14 15 15 15 15 15 15 15 15 15 16 16 16 16 16 16 16 15 15 15 15 14 14 14 14 14 13 13 15 15 15 15
7 7 8 7 7 8 8 8 8 9 9 9 10 12 12 13 13 13 13 14 14 14 15 14 15 15 15 15 15 16 15 15 15 16 15 15 15 15 15 14 14 14 13 13 13 14 14 15 15
6 7 6 7 7 7 7 7 8 8 8 9 9 10 10 11 12 13 13 13 13 14 14 15 15 15 15 15 15 15 15 15 15 15 15 16 16 16 15 14 14 13 13 13 13 13 13 14 15
7 6 6 6 7 6 7 7 7 7 8 9 10 9 9 9 10 11 12 13 13 13 14 14 14 14 15 15 15 15 15 15 15 15 15 15 16 16 16 16 15 14 13 13 13 13 13 13 14
6 5 6 6 7 6 7 6 7 7 8 9 9 9 9 9 9 10 11 12 13 13 13 14 14 14 15 15 15 15 15 15 14 14 15 15 15 15 15 15 15 16 15 13 13 13 13 13 13
5 5 5 6 6 6 5 5 6 8 9 8 8 8 9 9 9 9 10 11 12 13 13 13 14 14 14 14 14 15 14 14 14 14 15 15 15 15 14 14 14 14 15 15 14 13 14 13 13
5 5 4 5 5 6 6 6 5 9 7 7 8 9 9 9 9 9 10 11 12 13 13 13 13 13 14 14 14 14 14 13 13 13 14 14 14 15 15 14 14 14 14 14 14 14 13 13 13
3 3 5 6 5 6 6 7 7 8 7 7 8 8 8 9 9 9 10 10 12 13 13 13 13 13 13 13 13 13 13 13 14 14 14 14 14 14 14 14 14 14 14 13 13 13 13 12 13
3 4 4 5 5 6 6 6 6 7 7 6 6 7 7 8 9 10 10 10 11 12 13 13 13 13 14 14 13 13 13 13 13 13 13 14 14 14 14 13 13 12 13 13 13 13 13 12 13
3 3 3 4 5 5 4 5 6 6 6 6 5 6 6 7 9 10 10 10 10 10 11 13 13 13 14 14 13 13 13 13 13 13 13 13 13 13 13 13 12 11 12 12 12 12 12 11 12
1 2 2 3 5 4 5 5 6 7 5 5 5 5 6 6 7 9 9 10 10 9 10 12 13 13 13 13 13 13 14 14 13 13 12 12 12 12 12 12 12 11 11 11 11 12 12 12 11
2 2 3 4 5 6 6 6 6 6 6 6 6 6 7 7 8 7 7 7 9 9 11 12 13 13 13 13 13 12 12 12 12 12 12 12 12 12 12 12 11 11 11 11 11 11 11 11 11
3 3 4 4 6 6 5 5 6 6 6 6 5 5 6 7 7 7 7 7 8 7 8 12 12 13 12 12 12 12 11 11 11 11 12 12 12 12 12 12 11 11 11 11 11 11 11 11 10
4 6 6 5 6 7 6 8 6 5 6 6 5 5 5 5 6 6 6 7 7 7 10 12 12 12 12 12 11 11 10 10 10 10 10 12 12 12 12 12 11 11 12 11 11 11 11 10 10
5 7 7 7 6 6 6 6 6 5 6 6 6 5 4 4 6 5 5 6 6 7 9 10 10 10 9 10 10 9 9 9 10 11 12 10 11 11 11 11 11 11 11 11 10 10 9 9 10
7 6 6 6 6 7 5 6 6 6 6 6 6 4 4 4 4 4 4 5 6 6 8 8 9 8 8 8 9 9 9 9 9 11 10 10 11 11 11 10 11 11 10 10 10 10 10 9 9
6 6 5 4 7 6 7 6 7 6 6 6 5 4 3 3 3 3 3 3 4 5 6 6 7 7 7 8 8 8 9 9 9 9 9 10 10 10 10 11 10 10 10 10 10 10 10 9 9
6 6 7 5 6 7 6 7 7 5 5 4 3 3 3 3 2 2 2 2 3 3 4 4 4 4 5 6 7 8 8 8 8 8 8 9 9 9 9 9 9 9 10 9 9 9 9 9 9
7 6 7 7 7 8 8 7 6 5 4 3 1 2 2 2 2 2 2 2 2 3 3 2 2 4 4 6 6 6 6 6 7 8 8 8 9 8 8 9 9 9 9 9 9 9 9 9 10
7 7 7 7 7 8 8 7 7 5 4 2 1 1 1 1 1 1 2 2 3 3 4 5 5 5 5 5 6 7 7 8 8 8 8 9 9 9 9 9 8 8 8 8 9 9 9 9 9
7 6 6 6 7 8 8 8 6 4 3 3 2 2 1 1 1 2 2 3 3 3 4 4 5 5 6 6 7 6 6 7 7 7 7 7 7 7 8 8 8 9 8 8 8 8 8 9 9
8 7 6 6 7 6 6 8 5 5 4 2 3 2 2 2 2 2 2 2 3 4 4 5 5 5 6 6 6 6 6 6 6 6 6 6 7 7 7 7 7 7 7 7 7 7 8 8 8

GFSSGP_850_temp_102.txt.gz
Temp
13 14 14 15 19 19 22 20 20 19 19 18 17 19 21 20 22 22 16 16 16 16 16 16 16 17 17 17 17 17 17 17 17 17 16 16 16 16 16 16 17 16 16 16 15 15 15 15 16
13 13 14 16 20 22 23 19 19 19 17 17 17 18 19 21 17 16 16 16 16 16 16 16 17 16 17 17 17 17 17 17 17 17 16 16 16 16 16 17 17 16 16 16 15 15 16 16 16
13 13 16 18 20 22 22 18 18 17 16 18 19 18 18 17 16 15 14 16 16 16 16 16 16 16 16 17 17 17 17 17 17 17 17 16 14 16 16 16 16 16 15 15 16 16 17 17 16
12 14 14 18 20 18 18 17 16 17 16 16 17 19 15 13 13 14 17 16 16 16 16 16 16 16 16 16 16 16 17 17 17 17 16 16 15 16 15 15 16 15 15 15 15 16 16 16 16
13 14 17 17 18 16 16 16 15 17 17 17 16 18 17 13 13 15 16 16 16 16 16 16 16 16 16 16 16 16 16 16 16 16 16 16 15 16 16 15 15 15 15 15 15 17 16 16 16
14 14 17 18 17 15 15 14 15 16 16 16 16 17 17 14 15 15 15 15 16 16 16 16 15 16 16 16 16 16 16 16 16 15 16 16 16 16 15 15 15 15 15 15 15 16 16 16 16
15 15 16 16 16 16 15 13 15 15 15 16 14 17 17 14 14 14 14 15 15 16 16 16 15 15 15 15 16 16 16 16 16 16 16 15 15 15 15 15 15 15 15 15 15 15 16 16 15
12 15 14 15 15 15 12 13 12 13 15 12 13 17 17 14 14 14 14 14 14 15 16 16 15 14 15 16 16 16 16 16 16 16 16 16 15 15 15 15 14 15 14 15 14 14 15 16 15
11 15 16 15 14 14 11 13 11 11 12 13 13 13 13 13 13 13 14 14 14 14 15 16 16 15 14 15 15 16 16 16 16 16 16 16 16 14 15 15 14 14 14 14 14 14 14 15 15
13 14 15 12 12 13 12 11 11 12 13 13 13 13 13 12 12 12 13 14 14 14 14 15 15 15 15 15 15 15 15 15 15 15 15 16 16 14 14 14 15 14 14 14 14 14 14 14 13
10 13 11 10 10 9 11 11 11 11 13 13 13 13 12 11 11 11 12 12 13 14 13 14 14 14 15 15 15 15 15 15 15 15 15 15 16 16 15 14 15 15 14 13 13 13 13 13 13
11 9 9 9 8 9 10 10 11 11 12 12 11 11 10 10 10 10 10 12 13 14 14 13 13 14 15 14 15 15 15 15 15 15 15 15 15 16 15 14 14 14 14 13 13 13 13 13 13
10 9 8 8 8 8 8 9 10 10 11 10 10 10 9 9 9 10 10 11 13 13 14 14 13 14 14 14 15 14 14 14 14 13 14 15 15 15 14 14 14 14 14 13 14 14 14 13 13
8 8 9 8 8 8 8 9 7 12 10 10 9 9 10 10 9 9 10 10 11 12 14 14 13 14 13 14 15 14 14 12 13 14 14 14 14 14 14 14 14 14 14 13 13 13 14 13 13
7 9 9 8 8 9 7 11 9 10 9 9 9 10 10 10 9 9 9 9 10 11 12 14 14 13 13 13 14 14 14 13 13 13 13 13 14 14 14 15 15 15 14 13 13 13 13 13 13
8 9 12 9 8 7 8 14 13 11 10 9 9 9 9 9 9 9 9 9 9 10 11 13 13 13 13 13 13 13 13 13 13 13 13 13 13 14 14 14 14 15 12 14 13 13 13 13 13
9 10 10 10 8 9 9 11 13 11 9 9 9 9 9 9 8 9 8 9 10 10 9 11 12 13 13 13 13 13 13 13 13 13 13 13 13 13 13 13 13 13 14 13 13 13 13 13 13
8 8 8 9 9 8 9 10 12 11 10 9 9 8 8 8 8 8 8 8 9 11 10 11 11 12 13 13 13 14 13 13 13 14 13 13 13 13 13 12 12 11 11 11 12 13 12 12 13
6 7 6 8 8 7 9 10 11 11 9 9 7 7 8 8 8 8 7 7 7 9 10 10 10 11 12 13 13 13 14 14 13 13 13 13 13 13 12 12 12 12 11 11 11 11 11 12 12
6 7 8 9 8 8 10 10 12 10 9 8 8 7 7 8 8 7 7 8 7 7 7 8 9 10 11 12 12 12 13 13 13 13 13 13 13 12 12 12 13 12 11 11 11 11 11 11 12
8 8 8 7 8 10 9 13 10 10 8 8 8 6 6 6 6 6 7 6 7 7 7 8 8 9 9 10 12 12 13 13 13 13 13 13 12 12 12 12 12 13 12 12 11 11 11 11 11
8 8 8 8 8 9 9 10 12 10 10 9 9 7 6 5 5 5 6 6 6 6 7 7 8 8 10 13 12 11 11 10 10 11 10 10 10 10 10 12 12 12 11 11 12 12 11 11 11
9 9 9 8 7 7 9 7 12 10 10 10 9 7 5 4 4 4 5 5 5 6 6 6 7 10 11 11 11 11 10 10 9 9 10 10 10 10 10 10 10 11 11 11 11 11 11 11 11
9 8 8 9 7 8 10 9 12 10 9 8 8 5 4 3 3 3 3 4 4 5 6 7 7 9 8 9 10 9 9 9 9 9 9 9 10 9 10 10 10 11 10 10 11 10 10 10 10
8 6 9 9 7 10 9 8 11 9 6 6 5 4 3 3 2 3 3 3 3 4 5 6 6 6 7 7 8 8 8 8 9 8 8 9 10 10 9 9 10 10 10 10 10 10 10 10 10
7 7 8 9 11 11 9 9 11 5 5 4 2 3 3 2 2 2 2 2 2 3 3 4 5 5 6 6 6 5 8 7 6 8 7 8 8 8 8 9 9 9 9 9 9 10 9 9 10
7 7 7 7 9 8 12 9 7 6 4 3 2 2 1 1 1 2 2 3 3 3 3 4 5 5 5 5 6 5 6 6 6 7 7 7 7 8 8 8 8 8 8 9 9 9 9 9 9
9 9 8 7 9 11 12 10 9 5 4 3 2 2 1 1 1 1 1 2 3 3 3 3 3 4 4 4 5 6 6 6 6 6 6 7 7 7 8 8 8 8 8 8 8 8 8 9 9
8 9 8 8 8 11 12 12 7 5 4 3 2 2 1 1 1 1 2 2 3 2 3 3 3 3 4 4 5 5 5 5 6 6 6 6 6 7 7 7 7 7 7 7 8 7 7 8 8
10 10 10 9 10 10 10 12 8 6 5 3 3 2 2 2 3 2 3 3 3 3 3 4 4 4 4 4 4 4 5 5 5 5 5 5 5 5 5 6 6 6 6 6 6 6 6 6 7

GFSSGP_850_temp_105.txt.gz
Temp
14 13 15 17 20 22 24 24 24 22 22 22 21 22 24 23 24 22 17 15 16 16 16 17 17 17 17 17 17 17 17 17 17 16 16 16 16 17 16 16 17 17 16 16 16 15 15 15 16
13 13 15 19 20 23 25 23 22 22 21 20 20 21 22 22 19 18 16 15 15 16 16 16 17 17 17 17 17 17 17 17 17 17 16 16 16 16 16 16 17 16 16 16 16 15 15 15 16
12 14 18 20 22 24 24 22 22 20 19 20 21 20 20 19 17 16 15 14 17 16 16 16 16 16 17 16 17 17 17 17 17 17 17 16 16 15 17 16 16 16 16 15 15 15 16 16 16
14 15 17 20 22 22 21 21 20 20 19 19 19 21 17 15 15 14 14 14 16 16 16 16 16 16 16 16 16 16 16 16 16 16 16 16 15 15 15 16 16 16 15 15 15 16 16 16 16
14 17 20 20 22 20 20 19 18 20 20 20 19 21 19 15 14 14 14 14 15 16 16 16 16 16 16 16 16 16 16 16 16 16 16 15 16 15 15 15 15 16 15 15 15 16 16 16 16
16 17 19 20 21 20 19 17 18 19 19 19 19 19 19 14 13 15 15 13 13 16 16 16 15 16 16 16 16 16 16 16 16 16 16 16 16 16 15 15 15 15 15 15 15 15 16 16 16
17 18 20 21 20 19 18 16 18 19 19 19 16 19 18 15 14 15 14 14 14 13 15 16 15 15 16 16 16 16 16 16 16 16 16 16 16 16 16 15 15 15 15 15 15 15 16 16 16
15 18 18 19 19 18 16 15 15 16 18 15 16 19 19 16 14 13 13 14 14 14 13 15 15 15 15 14 16 16 16 16 16 16 16 16 15 16 16 15 15 15 15 15 15 15 15 16 15
13 17 19 18 18 17 14 16 14 13 14 16 16 16 16 15 14 14 13 14 14 14 14 14 14 15 14 14 15 15 15 15 16 16 16 15 16 16 15 15 15 15 15 15 14 14 14 15 15
15 16 18 16 16 16 15 14 15 14 16 16 16 16 16 15 14 13 13 13 13 14 15 14 14 14 14 14 14 14 14 15 15 15 15 15 15 14 15 15 15 15 15 15 14 14 14 14 15
14 16 14 13 13 12 14 14 14 14 15 17 16 15 15 14 13 13 12 12 12 13 15 15 14 14 13 14 14 14 14 14 15 15 15 15 14 15 15 14 14 14 14 14 14 14 14 14 14
14 12 13 12 11 11 13 12 13 14 15 15 14 13 13 12 12 12 12 12 12 12 14 15 15 14 14 13 14 14 13 14 15 15 15 15 15 16 15 14 15 15 14 14 13 13 13 14 13
14 12 11 11 10 11 11 12 13 13 13 13 13 12 12 12 12 12 12 12 12 12 12 13 14 15 14 14 15 14 13 13 14 15 15 15 15 15 15 15 15 14 14 14 14 14 13 13 13
11 11 12 11 11 10 10 12 11 14 12 12 12 12 12 12 12 12 12 12 12 12 12 12 12 14 14 14 14 14 13 13 13 13 13 14 15 15 14 14 15 15 14 14 14 14 14 14 14
10 12 12 11 11 11 10 13 12 13 12 12 13 12 12 12 11 11 11 11 11 11 11 11 11 11 12 13 14 14 13 13 12 13 13 13 13 13 13 13 14 14 15 15 14 14 14 13 14
12 11 14 12 11 10 10 15 16 13 13 13 13 12 12 11 11 11 11 11 11 11 11 11 11 10 11 11 13 13 12 13 13 12 12 13 12 12 12 13 13 13 13 13 13 14 14 14 14
12 12 13 13 11 11 11 14 16 14 13 13 13 12 11 11 11 10 10 10 9 10 10 10 10 10 10 11 11 11 13 13 12 12 12 13 12 12 12 13 13 12 12 13 13 13 13 13 13
13 12 11 12 12 11 11 12 14 14 14 12 13 11 10 11 11 10 9 9 8 9 9 9 9 10 10 10 11 11 11 12 11 12 12 12 12 12 12 12 12 12 12 12 12 12 13 13 13
10 11 11 12 11 10 12 13 14 15 14 12 12 11 10 9 9 8 8 7 7 7 7 9 8 9 9 10 10 10 10 11 11 11 12 12 12 12 11 11 11 11 11 12 11 12 12 12 12
10 11 11 12 11 10 12 12 14 14 13 11 11 10 8 7 7 6 6 6 6 6 7 8 8 9 10 10 10 10 11 11 11 11 11 12 12 13 11 11 11 11 11 11 11 11 12 11 12
11 11 11 9 11 13 11 14 12 12 11 11 11 10 8 7 5 5 4 5 5 6 7 6 7 8 8 9 9 10 10 12 11 11 12 12 11 11 11 11 11 11 11 11 12 12 12 11 11
10 11 10 10 9 11 12 11 14 13 12 12 11 9 8 6 5 4 4 4 4 5 5 6 6 7 7 8 9 10 10 10 10 10 10 10 10 10 10 10 10 10 11 11 11 11 12 11 11
10 10 10 10 8 8 11 8 14 13 13 12 10 8 6 4 3 3 3 3 4 4 5 5 5 6 7 7 10 11 11 10 9 9 9 9 10 10 11 10 10 10 10 11 11 11 11 11 11
10 10 9 9 9 9 12 11 13 13 11 9 8 6 4 3 3 3 3 3 3 3 4 4 5 6 6 7 9 10 10 8 9 8 9 9 9 9 9 9 9 9 10 10 10 10 10 11 11
9 8 10 10 9 11 12 11 13 12 7 6 5 4 3 3 3 3 3 2 2 3 3 3 4 5 6 6 7 7 7 8 8 8 8 8 8 8 8 8 9 8 9 10 10 10 10 10 10
8 8 9 10 12 12 11 9 12 8 6 5 3 2 3 2 2 2 3 3 3 3 3 3 4 5 5 6 7 6 6 6 6 8 5 7 5 8 8 8 8 7 8 8 9 9 10 10 10
7 8 9 8 11 9 12 12 10 7 6 5 3 2 2 2 2 2 2 3 3 3 3 3 4 5 5 5 5 5 6 6 6 6 5 5 7 6 7 7 7 7 7 7 7 7 7 8 9
11 10 8 7 9 11 13 13 12 7 6 4 3 2 2 2 1 2 2 3 3 3 4 4 4 4 4 4 4 5 5 6 5 4 5 5 6 7 7 6 7 7 7 7 7 6 6 7 7
10 10 9 10 10 10 13 14 10 8 5 4 3 2 2 2 2 3 4 3 4 4 3 3 3 3 4 4 4 4 5 4 4 4 5 5 5 5 5 5 6 6 5 6 6 6 5 5 6
12 12 12 11 12 12 12 13 10 8 7 4 4 3 2 2 3 3 3 3 3 3 3 3 3 3 4 3 3 3 4 4 4 4 4 4 4 5 5 5 4 4 5 4 5 5 5 5 6

GFSSGP_850_temp_111.txt.gz
Temp
15 15 16 16 14 12 15 20 18 20 19 20 20 19 16 16 17 16 15 16 16 16 17 16 17 17 17 17 17 17 17 17 17 17 17 16 16 16 16 16 17 16 16 16 15 15 15 16 17
15 15 15 16 12 14 15 17 15 17 19 21 21 20 18 16 16 15 15 15 15 16 17 16 16 16 17 17 17 17 17 17 17 16 17 16 16 16 16 16 16 17 15 15 16 15 15 16 16
15 14 15 12 12 15 15 16 16 18 19 20 20 18 16 15 16 14 14 14 15 15 16 17 17 16 16 17 17 17 17 17 17 17 17 17 16 16 16 16 16 16 16 16 16 15 15 15 15
14 15 15 13 15 16 16 16 18 18 19 19 19 14 15 15 16 15 15 15 16 16 15 16 16 16 16 16 16 16 16 16 16 16 17 16 16 16 16 16 16 16 16 15 15 15 16 16 16
14 15 12 14 17 16 15 17 18 17 18 19 19 16 14 14 15 15 16 16 16 16 15 16 16 15 15 15 16 16 16 16 16 16 16 16 16 16 16 16 16 16 16 16 15 15 15 16 16
14 15 12 14 15 15 14 17 17 17 18 18 17 16 14 14 15 15 16 16 16 16 15 16 16 16 16 15 15 15 16 16 16 16 16 16 16 16 16 16 16 16 16 16 15 15 15 16 16
13 11 13 16 14 14 15 16 14 14 15 16 17 15 14 15 15 15 15 15 16 16 16 16 15 15 15 15 15 15 15 16 16 16 16 16 16 16 16 16 16 16 16 16 15 15 15 15 16
14 11 16 16 14 13 14 15 15 14 14 16 16 14 14 15 15 15 15 15 15 15 16 16 16 15 15 15 14 15 15 15 15 15 15 15 15 15 15 16 16 16 16 15 15 15 15 15 15
14 10 12 12 14 13 14 14 15 14 15 15 16 16 15 14 14 15 15 15 15 15 15 15 16 16 15 15 15 15 15 15 15 15 15 15 15 15 15 15 16 15 16 16 15 15 15 15 15
12 8 12 11 11 12 14 14 14 14 14 15 15 15 15 15 15 15 14 14 13 14 14 14 15 15 15 15 15 15 15 15 15 15 15 15 15 15 15 16 15 15 15 15 15 15 15 14 15
13 11 12 11 12 12 13 13 13 13 13 14 14 14 15 15 15 14 13 12 12 12 13 13 14 14 15 15 15 14 14 14 14 14 15 15 15 14 15 15 14 14 15 15 15 15 15 15 15
11 12 12 11 11 11 11 12 12 12 13 14 13 13 13 13 12 12 12 12 12 11 11 12 12 12 13 13 14 15 14 14 14 14 14 14 15 15 14 14 14 14 14 14 14 14 15 15 15
12 11 12 11 11 11 11 10 10 12 13 13 13 13 13 12 12 12 12 11 11 11 11 11 11 11 11 12 13 13 14 13 13 13 13 14 14 15 14 14 14 14 14 14 14 14 14 14 14
11 12 11 11 11 11 10 10 10 13 13 13 13 13 13 12 11 11 11 10 10 10 10 10 10 10 11 11 12 12 13 13 12 13 13 13 14 14 14 14 14 14 14 14 14 14 14 14 14
11 10 10 10 11 10 10 10 8 13 13 13 13 12 12 11 10 10 9 10 10 9 10 10 10 10 10 10 10 11 12 12 13 12 12 13 13 14 14 14 15 14 14 14 13 13 13 14 14
10 9 8 10 10 10 10 10 12 13 13 13 13 12 11 10 10 9 9 9 9 9 9 9 10 10 10 10 10 10 11 12 11 12 13 13 13 13 14 14 14 14 14 14 14 14 14 14 13
9 6 10 9 10 10 10 9 11 13 12 13 12 12 11 10 9 9 8 8 8 9 9 9 9 9 10 9 10 9 10 10 11 11 12 13 12 13 13 13 14 13 13 13 14 14 13 13 14
7 7 11 11 10 10 9 7 9 12 12 13 12 11 10 10 9 7 7 8 8 8 9 9 9 9 9 9 9 9 9 10 10 11 11 12 12 12 12 12 13 14 13 12 12 12 13 13 13
10 10 9 11 10 9 8 8 9 11 12 11 11 10 9 9 8 7 7 7 7 8 8 8 8 9 9 9 8 9 9 9 10 10 11 12 12 11 11 12 12 12 12 12 11 12 11 12 11
9 10 10 10 10 10 8 9 10 10 11 10 10 9 9 8 7 7 7 7 5 5 6 7 7 8 8 8 8 8 8 9 9 10 10 10 10 11 11 12 12 12 12 11 11 11 11 11 11
9 9 8 7 9 9 8 7 10 11 10 11 10 8 7 7 6 5 4 3 3 3 4 5 6 7 7 8 8 7 8 9 9 9 9 9 9 10 10 11 11 11 12 11 11 11 10 10 11
8 9 9 9 6 4 7 5 7 9 9 9 7 7 6 6 5 4 4 4 3 4 4 4 6 7 6 7 6 7 7 7 7 9 8 8 9 9 9 10 11 10 10 10 10 10 10 10 10
8 9 9 9 7 5 6 3 6 9 9 8 5 5 5 5 4 5 4 4 4 4 5 4 5 6 6 6 6 6 7 7 7 8 8 8 8 8 8 9 9 8 8 9 9 8 9 10 9
9 8 8 9 8 3 6 6 6 8 9 7 5 5 4 4 4 4 4 4 4 4 4 4 4 4 5 6 5 5 6 6 7 7 6 7 7 7 7 7 7 7 7 8 8 8 7 8 7
9 6 3 4 3 4 8 6 7 9 6 6 5 4 4 3 3 4 3 4 4 4 3 3 4 4 4 4 4 5 5 5 5 5 6 6 7 7 6 6 7 7 6 7 7 7 7 7 8
8 8 3 3 5 4 8 6 7 6 6 5 5 4 4 3 3 3 3 3 4 4 3 3 4 4 4 4 4 4 4 4 4 5 5 5 5 4 4 5 5 5 6 7 7 6 7 6 6
7 7 8 4 6 3 4 7 8 6 5 5 4 4 4 3 2 3 3 3 3 4 4 4 5 5 4 4 5 4 4 4 4 4 4 4 4 4 4 4 4 4 5 5 5 6 6 6 6
9 9 8 5 4 8 5 7 7 6 6 5 4 4 4 3 3 3 3 3 4 4 4 5 5 5 4 4 4 4 4 4 4 4 4 4 4 4 4 4 4 4 4 4 4 4 4 4 3
9 8 8 8 9 8 6 7 8 7 5 5 5 5 4 3 4 4 4 4 4 4 5 5 5 5 5 5 5 4 4 4 4 4 3 3 3 3 3 3 3 4 4 4 3 3 3 3 3
8 8 8 5 7 8 6 7 9 7 5 5 5 5 3 2 4 4 4 5 5 4 5 5 5 5 4 4 5 4 4 4 3 3 3 3 3 2 2 2 2 2 2 2 2 2 2 2 2